Location: Alafon
(8.4500°N, 4.2333°E)
Time: 16:33:13
(UTC+00:00)

Transit 2A - Pass Details

Date: 01 August 2021
Orbit: 595 x 964 km, 66.7° (Epoch: 18 September)

Event Time Altitude Azimuth Distance (km) Brightness Sun altitude
Rises 05:02:44 0° 215° (SW) 2,874 - -8.3°
Exits shadow 05:04:13 - 220° (SW) 2,290 7.9 -8.0°
Reaches altitude 10° 05:05:08 10° 224° (SW) 1,943 7.6 -7.8°
Maximum altitude 05:09:07 36° 291° (WNW) 938 6.1 -6.9°
Drops below altitude 10° 05:13:04 10° 359° (N) 1,925 8.3 -5.9°
Sets 05:15:28 0° 8° (N) 2,844 9.3 -5.4°
